When you browse on this site, cookies collect data to enhance your experience and personalize the content and advertising you see.
Visit our Privacy Policy to learn more. By continuing to use the site, you agree to this use of cookies and data.
  • In Slovakia
  • List of Countries
  • For 7 days
  • Water Temperature
  • Satellite Maps
  • Weather Map
  • Weather Widgets
  • user-avatar
    Login

    Hourly Weather Tibissa

    Today, 24 July, Wednesday

    Time Temperature Precipitation Wind Pressure Humidity
    00:00 +27°C° 0 mm 2 mps 688 mmHg 24%
    01:00 +26°C° 0 mm 2 mps 687 mmHg 24%
    02:00 +25°C° 0 mm 2 mps 687 mmHg 24%
    03:00 +25°C° 0 mm 2 mps 686 mmHg 25%
    04:00 +24°C° 0 mm 2 mps 686 mmHg 25%
    05:00 +25°C° 0 mm 2 mps 686 mmHg 24%
    06:00 +26°C° 0 mm 2 mps 687 mmHg 22%
    07:00 +27°C° 0 mm 2 mps 687 mmHg 21%
    08:00 +28°C° 0 mm 2 mps 688 mmHg 20%
    09:00 +30°C° 0 mm 2 mps 688 mmHg 19%
    10:00 +32°C° 0 mm 2 mps 689 mmHg 18%
    11:00 +34°C° 0 mm 2 mps 688 mmHg 16%
    12:00 +35°C° 0 mm 2 mps 688 mmHg 15%
    13:00 +36°C° 0 mm 2 mps 688 mmHg 14%
    14:00 +36°C° 0 mm 3 mps 688 mmHg 13%
    15:00 +37°C° 0 mm 3 mps 687 mmHg 13%
    16:00 +37°C° 0 mm 3 mps 687 mmHg 12%
    17:00 +36°C° 0 mm 4 mps 687 mmHg 13%
    18:00 +36°C° 0 mm 4 mps 687 mmHg 14%
    19:00 +35°C° 0 mm 5 mps 687 mmHg 15%
    20:00 +33°C° 0 mm 4 mps 687 mmHg 19%
    21:00 +30°C° 0 mm 3 mps 687 mmHg 24%
    22:00 +29°C° 0 mm 3 mps 687 mmHg 28%
    23:00 +28°C° 0 mm 2 mps 686 mmHg 29%

    Tomorrow, 25 July, Thursday

    Time Temperature Precipitation Wind Pressure Humidity
    00:00 +27°C° 0 mm 2 mps 686 mmHg 30%
    01:00 +26°C° 0 mm 1 mps 686 mmHg 31%
    02:00 +26°C° 0 mm 2 mps 686 mmHg 31%
    03:00 +26°C° 0 mm 2 mps 686 mmHg 30%
    04:00 +25°C° 0 mm 2 mps 686 mmHg 29%
    05:00 +26°C° 0 mm 2 mps 686 mmHg 28%
    06:00 +27°C° 0 mm 3 mps 686 mmHg 26%
    07:00 +28°C° 0 mm 3 mps 687 mmHg 25%
    08:00 +30°C° 0 mm 3 mps 687 mmHg 22%
    09:00 +33°C° 0 mm 3 mps 688 mmHg 20%
    10:00 +34°C° 0 mm 3 mps 688 mmHg 18%
    11:00 +35°C° 0 mm 3 mps 688 mmHg 17%
    12:00 +36°C° 0 mm 3 mps 688 mmHg 15%
    13:00 +37°C° 0 mm 3 mps 688 mmHg 14%
    14:00 +38°C° 0 mm 4 mps 687 mmHg 13%
    15:00 +38°C° 0 mm 4 mps 687 mmHg 13%
    16:00 +38°C° 0 mm 4 mps 686 mmHg 13%
    17:00 +38°C° 0 mm 4 mps 686 mmHg 13%
    18:00 +37°C° 0 mm 4 mps 686 mmHg 14%
    19:00 +36°C° 0 mm 4 mps 686 mmHg 15%
    20:00 +35°C° 0 mm 4 mps 686 mmHg 18%
    21:00 +33°C° 0 mm 4 mps 686 mmHg 21%
    22:00 +30°C° 0 mm 3 mps 686 mmHg 25%
    23:00 +29°C° 0 mm 3 mps 686 mmHg 26%

    Day after tomorrow, 26 July, Friday

    Time Temperature Precipitation Wind Pressure Humidity
    00:00 +28°C° 0 mm 3 mps 686 mmHg 27%
    01:00 +28°C° 0 mm 2 mps 685 mmHg 29%
    02:00 +27°C° 0 mm 2 mps 685 mmHg 29%
    03:00 +27°C° 0 mm 3 mps 685 mmHg 30%
    04:00 +26°C° 0 mm 3 mps 685 mmHg 31%
    05:00 +27°C° 0 mm 3 mps 685 mmHg 28%
    06:00 +28°C° 0 mm 3 mps 685 mmHg 26%
    07:00 +29°C° 0 mm 3 mps 685 mmHg 24%
    08:00 +32°C° 0 mm 4 mps 686 mmHg 21%
    09:00 +34°C° 0 mm 6 mps 686 mmHg 17%
    10:00 +38°C° 0 mm 7 mps 687 mmHg 14%
    11:00 +39°C° 0 mm 7 mps 686 mmHg 13%
    12:00 +40°C° 0 mm 7 mps 686 mmHg 12%
    13:00 +40°C° 0 mm 7 mps 686 mmHg 10%
    14:00 +40°C° 0 mm 7 mps 685 mmHg 10%
    15:00 +41°C° 0 mm 8 mps 685 mmHg 10%
    16:00 +41°C° 0 mm 8 mps 685 mmHg 10%
    17:00 +39°C° 0 mm 8 mps 684 mmHg 11%
    18:00 +38°C° 0 mm 8 mps 684 mmHg 13%
    19:00 +37°C° 0 mm 8 mps 684 mmHg 15%
    20:00 +34°C° 0 mm 5 mps 684 mmHg 18%
    21:00 +31°C° 0 mm 3 mps 684 mmHg 22%
    22:00 +29°C° 0 mm 1 mps 684 mmHg 25%
    23:00 +28°C° 0 mm 1 mps 684 mmHg 26%

    27 July, Saturday

    Time Temperature Precipitation Wind Pressure Humidity
    00:00 +28°C° 0 mm 1 mps 683 mmHg 27%
    01:00 +27°C° 0 mm 1 mps 683 mmHg 28%
    02:00 +27°C° 0 mm 1 mps 683 mmHg 26%
    03:00 +27°C° 0 mm 2 mps 682 mmHg 25%
    04:00 +27°C° 0 mm 2 mps 682 mmHg 24%
    05:00 +28°C° 0 mm 2 mps 682 mmHg 23%
    06:00 +30°C° 0 mm 3 mps 682 mmHg 21%
    07:00 +31°C° 0 mm 3 mps 683 mmHg 20%
    08:00 +34°C° 0 mm 4 mps 683 mmHg 18%
    09:00 +36°C° 0 mm 6 mps 684 mmHg 15%
    10:00 +39°C° 0 mm 7 mps 684 mmHg 13%
    11:00 +40°C° 0 mm 8 mps 684 mmHg 13%
    12:00 +42°C° 0 mm 9 mps 684 mmHg 12%
    13:00 +42°C° 0 mm 10 mps 683 mmHg 12%
    14:00 +42°C° 0 mm 10 mps 683 mmHg 12%
    15:00 +42°C° 0 mm 10 mps 683 mmHg 12%
    16:00 +42°C° 0 mm 10 mps 682 mmHg 12%
    17:00 +40°C° 0 mm 9 mps 682 mmHg 14%
    18:00 +39°C° 0 mm 8 mps 682 mmHg 17%
    19:00 +36°C° 0 mm 7 mps 682 mmHg 20%
    20:00 +33°C° 0 mm 6 mps 682 mmHg 28%
    21:00 +30°C° 0 mm 5 mps 682 mmHg 36%
    22:00 +27°C° 0 mm 4 mps 682 mmHg 44%
    23:00 +26°C° 0 mm 3 mps 682 mmHg 46%

    28 July, Sunday

    Time Temperature Precipitation Wind Pressure Humidity
    00:00 +25°C° 0 mm 3 mps 682 mmHg 47%
    01:00 +24°C° 0 mm 2 mps 681 mmHg 48%
    02:00 +24°C° 0 mm 2 mps 681 mmHg 48%
    03:00 +23°C° 0 mm 2 mps 681 mmHg 49%
    04:00 +21°C° 0 mm 2 mps 681 mmHg 49%
    05:00 +21°C° 0 mm 2 mps 681 mmHg 47%
    06:00 +23°C° 0 mm 2 mps 681 mmHg 46%
    07:00 +22°C° 0 mm 3 mps 682 mmHg 45%
    08:00 +25°C° 0 mm 3 mps 682 mmHg 40%
    09:00 +26°C° 0 mm 4 mps 683 mmHg 34%
    10:00 +28°C° 0 mm 4 mps 683 mmHg 29%
    11:00 +29°C° 0 mm 4 mps 684 mmHg 26%
    12:00 +32°C° 0 mm 4 mps 684 mmHg 24%
    13:00 +34°C° 0 mm 3 mps 684 mmHg 21%
    14:00 +34°C° 0 mm 3 mps 684 mmHg 20%
    15:00 +35°C° 0 mm 4 mps 684 mmHg 19%
    16:00 +36°C° 0 mm 4 mps 684 mmHg 17%
    17:00 +35°C° 0 mm 4 mps 684 mmHg 23%
    18:00 +33°C° 0 mm 5 mps 684 mmHg 29%
    19:00 +32°C° 0 mm 6 mps 683 mmHg 35%
    20:00 +29°C° 0 mm 5 mps 684 mmHg 44%
    21:00 +27°C° 0 mm 4 mps 684 mmHg 53%
    22:00 +25°C° 0 mm 3 mps 684 mmHg 62%
    23:00 +25°C° 0 mm 2 mps 684 mmHg 64%

    29 July, Monday

    Time Temperature Precipitation Wind Pressure Humidity
    00:00 +24°C° 0 mm 2 mps 684 mmHg 66%
    01:00 +24°C° 0 mm 1 mps 684 mmHg 68%
    02:00 +23°C° 0 mm 1 mps 684 mmHg 71%
    03:00 +22°C° 0 mm 1 mps 684 mmHg 73%
    04:00 +20°C° 0 mm 0 mps 683 mmHg 76%
    05:00 +20°C° 0 mm 0 mps 684 mmHg 73%
    06:00 +21°C° 0 mm 0 mps 684 mmHg 71%
    07:00 +21°C° 0 mm 0 mps 684 mmHg 69%
    08:00 +25°C° 0 mm 1 mps 685 mmHg 60%
    09:00 +27°C° 0 mm 1 mps 685 mmHg 51%
    10:00 +29°C° 0 mm 2 mps 686 mmHg 41%
    11:00 +31°C° 0 mm 3 mps 686 mmHg 35%
    12:00 +34°C° 0 mm 4 mps 686 mmHg 29%
    13:00 +36°C° 0 mm 5 mps 686 mmHg 23%
    14:00 +36°C° 0 mm 6 mps 686 mmHg 22%
    15:00 +38°C° 0 mm 6 mps 686 mmHg 21%
    16:00 +39°C° 0 mm 6 mps 685 mmHg 20%
    17:00 +36°C° 0 mm 7 mps 685 mmHg 23%
    18:00 +34°C° 0 mm 7 mps 685 mmHg 27%
    19:00 +32°C° 0 mm 7 mps 685 mmHg 31%
    20:00 +29°C° 0 mm 5 mps 685 mmHg 35%
    21:00 +27°C° 0 mm 4 mps 685 mmHg 40%
    22:00 +26°C° 0 mm 3 mps 685 mmHg 44%
    23:00 +25°C° 0 mm 2 mps 685 mmHg 46%
    Show more